Waarnemingen

Advertentie
Mijn weer
Strasbourg, Frankrijk (7190): temperatuur & dauwpunt: 18.11.2017 17:00:00 - 24.11.2017 17:00:00 (CET)Strasbourg, Frankrijk (7190): temperatuur 5cm: 18.11.2017 17:00:00 - 24.11.2017 17:00:00 (CET)Strasbourg, Frankrijk (7190): temperatuur -20cm & temperatuur -100cm: 18.11.2017 17:00:00 - 24.11.2017 17:00:00 (CET)Strasbourg, Frankrijk (7190): windsnelheid & windstoten: 18.11.2017 17:00:00 - 24.11.2017 17:00:00 (CET)Strasbourg, Frankrijk (7190): windrichting: 18.11.2017 17:00:00 - 24.11.2017 17:00:00 (CET)Strasbourg, Frankrijk (7190): luchtdruk: 18.11.2017 17:00:00 - 24.11.2017 17:00:00 (CET)Strasbourg, Frankrijk (7190): zicht: 18.11.2017 17:00:00 - 24.11.2017 17:00:00 (CET)Strasbourg, Frankrijk (7190): neerslag: 18.11.2017 17:00:00 - 24.11.2017 17:00:00 (CET)
Datum & Tijd tt [°C] td [°C] tt 5cm [°C] tt -20cm [°C] tt -100cm [°C] ff [km/u] ff [kn] fx [km/u] fx [kn] dd ppp [hPa] vv [km] rr [mm]
24.11.2017 17:00:00 12,2 8,7 11,1 7,6 9,8 9 5 19 10 ZZO 1013,8 10 0,0
24.11.2017 16:00:00 13,3 9,0 12,4 7,4 9,8 15 8 32 18 ZW 1014,0 10 0,0
24.11.2017 15:00:00 13,4 9,1 12,1 7,3 9,8 22 12 38 20 ZZW 1013,1 60 0,0
24.11.2017 14:00:00 13,2 9,4 11,9 7,1 9,8 28 15 39 21 ZW 1014,0 10 0,2
24.11.2017 13:00:00 15,6 8,1 13,3 6,8 9,8 26 14 42 23 WZW 1013,5 39 0,0
24.11.2017 12:00:00 15,9 8,4 16,0 6,7 9,8 21 11 36 19 ZZW 1012,6 10 0,0
24.11.2017 11:00:00 15,2 8,0 14,0 6,6 9,9 22 12 43 23 ZZW 1012,5 34 0,0
24.11.2017 10:00:00 13,8 7,1 12,8 6,6 9,9 24 13 40 21 Z 1012,6 10 0,0
24.11.2017 09:00:00 10,9 6,2 7,1 6,6 9,8 4 2 19 11 - 1013,1 10 0,0
24.11.2017 08:00:00 7,0 5,1 3,9 6,7 9,8 9 5 18 10 Z 1013,2 10 0,0
24.11.2017 07:00:00 6,2 3,9 4,1 6,7 9,8 8 4 18 10 ZW 1013,3 10 0,0
24.11.2017 06:00:00 7,6 4,9 5,2 6,7 9,8 9 5 16 8 Z 1012,8 10 0,0
24.11.2017 05:00:00 8,8 5,5 7,4 6,7 9,9 8 4 16 9 Z 1013,4 10 0,0
24.11.2017 04:00:00 9,6 5,6 7,5 6,8 9,9 9 5 22 12 ZZO 1013,3 10 0,0
24.11.2017 03:00:00 10,2 6,0 7,7 6,8 9,9 11 6 21 12 Z 1013,9 10 0,0
24.11.2017 02:00:00 10,0 5,6 8,0 6,8 9,9 13 7 24 13 Z 1014,1 10 0,0
24.11.2017 01:00:00 11,0 5,7 8,5 6,8 9,9 11 6 17 9 Z 1014,1 10 0,0
24.11.2017 00:00:00 10,8 5,5 8,7 6,8 9,9 9 5 21 11 Z 1014,4 10 0,0
23.11.2017 23:00:00 8,9 5,6 5,6 6,9 9,9 13 7 19 10 Z 1014,4 10 0,0
23.11.2017 22:00:00 10,4 5,2 8,1 6,9 9,9 9 5 22 12 ZZW 1014,1 10 0,0
23.11.2017 21:00:00 11,1 5,6 8,2 6,9 9,9 15 8 22 12 Z 1014,0 10 0,0
23.11.2017 20:00:00 12,0 5,8 8,7 6,9 9,9 15 8 23 13 ZZW 1013,7 10 0,0
23.11.2017 19:00:00 11,7 5,8 8,9 6,8 9,9 13 7 21 11 ZZW 1013,3 10 0,0
23.11.2017 18:00:00 12,4 6,0 9,8 6,7 9,9 9 5 18 10 ZZW 1012,8 10 0,0
23.11.2017 17:00:00 13,0 6,3 9,1 6,5 9,9 13 7 28 15 Z 1012,2 10 0,0
23.11.2017 16:00:00 15,6 7,4 16,0 6,3 9,9 18 10 47 26 ZZW 1011,6 10 0,0
23.11.2017 15:00:00 16,5 6,9 15,7 6,0 9,9 16 9 32 18 Z 1011,1 10 0,0
23.11.2017 14:00:00 16,3 6,7 14,6 5,8 9,9 15 8 35 19 Z 1011,2 10 0,0
23.11.2017 13:00:00 14,1 6,2 13,1 5,6 9,9 16 9 29 16 Z 1011,1 10 0,0
23.11.2017 12:00:00 13,2 4,9 12,2 5,5 9,9 22 12 42 23 Z 1011,3 10 0,0
23.11.2017 11:00:00 11,7 3,5 10,1 5,4 9,9 26 14 44 24 Z 1011,2 10 0,0
23.11.2017 10:00:00 10,4 3,2 7,7 5,4 9,9 24 13 38 21 Z 1010,6 44 0,0
23.11.2017 09:00:00 8,5 2,9 5,6 5,5 9,9 15 8 30 16 Z 1010,6 10 0,0
23.11.2017 08:00:00 7,7 2,6 5,6 5,5 9,9 11 6 24 13 Z 1010,0 10 0,0
23.11.2017 07:00:00 7,5 2,8 2,9 5,6 9,9 11 6 30 16 ZZW 1009,9 10 0,0
23.11.2017 06:00:00 5,3 1,9 2,4 5,7 9,9 8 4 21 11 ZZW 1009,8 10 0,0
23.11.2017 05:00:00 6,2 2,1 2,1 5,8 9,9 11 6 30 16 Z 1010,0 10 0,0
23.11.2017 04:00:00 5,4 1,5 2,3 5,9 9,9 5 3 23 12 ZO 1010,1 10 0,0
23.11.2017 03:00:00 5,8 2,1 1,4 6,0 10,0 15 8 22 12 ZZO 1010,3 10 0,0
23.11.2017 02:00:00 4,7 1,9 1,2 6,1 9,9 11 6 16 9 ZZO 1010,1 10 0,0
23.11.2017 01:00:00 5,6 2,1 3,7 6,3 10,0 9 5 23 13 Z 1010,2 10 0,0
23.11.2017 00:00:00 6,8 2,9 2,7 6,4 10,0 18 10 25 13 Z 1010,2 10 0,0
22.11.2017 23:00:00 8,6 3,4 2,5 6,5 10,0 6 4 23 13 Z 1010,0 37 0,0
22.11.2017 22:00:00 5,4 3,2 1,6 6,6 9,9 9 5 18 10 ZZW 1010,4 10 0,0
22.11.2017 21:00:00 4,6 2,5 1,6 6,8 10,0 5 3 10 5 OZO 1010,7 10 0,0
22.11.2017 20:00:00 6,6 3,4 2,3 6,8 10,0 2 1 10 5 - 1010,9 10 0,0
22.11.2017 19:00:00 8,6 4,6 4,7 6,8 10,0 5 3 14 8 Z 1011,1 10 0,0
22.11.2017 18:00:00 8,8 4,0 4,7 6,7 10,0 13 7 18 10 Z 1011,2 10 0,0
22.11.2017 17:00:00 10,6 4,7 6,1 6,6 10,0 5 3 10 5 ZO 1011,2 50 0,0
22.11.2017 16:00:00 13,8 6,2 15,7 6,2 10,0 5 3 16 9 Z 1011,4 60 0,0
22.11.2017 15:00:00 15,4 6,4 18,7 5,9 10,0 13 7 21 11 Z 1011,6 10 0,0
22.11.2017 14:00:00 15,6 6,6 19,2 5,6 10,0 11 6 19 10 Z 1012,2 10 0,0
22.11.2017 13:00:00 15,2 7,0 17,7 5,3 10,0 8 4 18 10 Z 1012,7 44 0,0
22.11.2017 12:00:00 13,1 6,4 13,4 5,2 10,0 12 7 18 10 Z 1013,6 48 0,0
22.11.2017 11:00:00 11,1 6,2 10,7 5,2 10,0 9 5 17 9 ZW 1014,3 10 0,0
22.11.2017 10:00:00 6,6 5,2 4,5 5,3 10,0 2 1 8 4 - 1014,6 10 0,0
22.11.2017 09:00:00 3,4 2,7 0,6 5,5 10,0 0 0 7 4 N 1014,7 10 0,0
22.11.2017 08:00:00 1,5 0,9 -0,9 5,6 10,0 5 3 8 4 N 1015,0 8 0,0
22.11.2017 07:00:00 2,0 1,6 -0,9 5,7 10,0 6 3 12 7 NNW 1014,9 8 0,0
22.11.2017 06:00:00 2,6 1,9 0,1 5,8 10,0 5 3 14 8 - 1015,4 10 0,0
22.11.2017 05:00:00 2,6 2,2 0,0 5,9 10,0 4 2 11 6 - 1015,6 10 0,0
22.11.2017 04:00:00 2,4 1,7 0,5 6,0 10,0 2 1 11 6 - 1015,7 10 0,0
22.11.2017 03:00:00 2,7 1,8 0,0 6,1 10,1 5 3 11 6 - 1015,9 10 0,0
22.11.2017 02:00:00 3,8 3,4 0,3 6,3 10,1 4 2 14 7 ZW 1016,3 26 0,0
22.11.2017 01:00:00 2,6 1,7 0,1 6,4 10,1 0 0 10 5 N 1016,5 10 0,0
22.11.2017 00:00:00 2,9 1,9 0,8 6,6 10,1 8 4 15 8 W 1016,9 14 0,0
21.11.2017 23:00:00 3,3 2,4 0,3 6,7 10,1 5 3 8 5 WNW 1017,0 10 0,0
21.11.2017 22:00:00 4,3 3,0 1,7 6,8 10,1 4 2 14 8 - 1016,9 10 0,0
21.11.2017 21:00:00 5,2 3,7 2,3 6,9 10,1 5 3 13 7 - 1016,9 10 0,0
21.11.2017 20:00:00 6,8 4,9 3,9 7,0 10,1 5 3 19 10 N 1017,1 22 0,0
21.11.2017 19:00:00 8,9 5,3 4,6 6,9 10,1 11 6 25 14 Z 1017,1 10 0,0
21.11.2017 18:00:00 8,2 5,7 5,9 6,9 10,1 4 2 16 9 - 1017,1 10 0,0
21.11.2017 17:00:00 8,9 6,2 7,6 6,7 10,1 10 6 17 9 ZW 1017,0 40 0,0
21.11.2017 16:00:00 11,4 7,5 11,1 6,6 10,1 11 6 21 12 ZZW 1016,7 10 0,0
21.11.2017 15:00:00 10,8 7,1 11,1 6,3 10,1 13 7 22 12 Z 1017,0 10 0,0
21.11.2017 14:00:00 10,5 6,6 - - - 13 7 26 14 Z 1017,3 10 0,0
21.11.2017 13:00:00 10,4 6,3 12,0 5,9 10,1 16 9 26 14 Z 1018,1 10 0,0
21.11.2017 12:00:00 9,8 6,5 8,1 5,8 10,2 16 9 22 12 Z 1018,8 10 0,0
21.11.2017 11:00:00 7,3 5,3 6,1 5,8 10,2 13 7 28 15 Z 1019,7 10 0,0
21.11.2017 10:00:00 6,4 5,0 5,8 5,7 10,2 18 10 32 18 Z 1019,7 18 0,2
21.11.2017 09:00:00 6,0 5,0 5,5 5,7 10,2 16 9 27 15 Z 1019,7 10 0,6
21.11.2017 08:00:00 6,0 4,8 5,5 5,7 10,2 16 9 26 14 Z 1019,5 10 0,6
21.11.2017 07:00:00 6,3 4,8 5,5 5,6 10,2 20 11 32 17 Z 1019,2 27 0,2
21.11.2017 06:00:00 6,4 4,6 5,5 5,6 10,2 21 11 32 18 Z 1019,2 10 0,0
21.11.2017 05:00:00 6,2 4,2 5,5 5,5 10,2 21 11 36 19 Z 1019,2 10 0,0
21.11.2017 04:00:00 6,7 4,4 5,8 5,5 10,2 18 10 29 15 Z 1019,0 10 0,0
21.11.2017 03:00:00 6,5 4,5 5,8 5,5 10,3 13 7 27 14 Z 1019,4 10 0,0
21.11.2017 02:00:00 6,5 4,8 5,2 5,4 10,2 16 9 28 15 Z 1019,3 10 0,0
21.11.2017 01:00:00 5,9 4,4 5,0 5,4 10,3 11 6 22 12 ZZO 1019,9 10 0,6
21.11.2017 00:00:00 6,3 4,0 4,9 5,3 10,3 7 4 31 17 W 1020,7 20 0,0
20.11.2017 23:00:00 6,0 3,8 4,9 5,3 10,3 16 9 26 14 Z 1019,6 15 0,4
20.11.2017 22:00:00 6,3 3,3 5,4 5,2 10,3 16 9 30 16 Z 1020,2 10 0,0
20.11.2017 21:00:00 5,7 2,9 4,9 5,2 10,3 18 10 38 21 Z 1019,9 10 0,0
20.11.2017 20:00:00 5,2 2,5 4,4 5,2 10,3 19 11 37 20 Z 1020,1 20 0,0
20.11.2017 19:00:00 5,0 3,0 4,1 5,1 10,3 18 10 33 18 Z 1020,9 14 0,0
20.11.2017 18:00:00 5,0 2,7 4,1 5,1 10,3 21 11 36 19 Z 1020,9 10 0,0
20.11.2017 17:00:00 4,9 2,8 4,5 5,0 10,3 21 11 31 17 Z 1021,4 10 0,0
20.11.2017 16:00:00 4,7 3,0 4,5 4,9 10,3 15 8 24 13 Z 1022,2 10 0,0
20.11.2017 15:00:00 4,3 2,6 4,4 4,8 10,3 16 9 26 14 Z 1022,5 10 0,0
20.11.2017 14:00:00 4,1 2,1 4,4 4,8 10,3 11 6 17 9 ZZW 1023,2 10 0,0
20.11.2017 13:00:00 3,4 1,8 3,1 4,7 10,3 8 4 17 9 ZZW 1023,8 10 0,0
20.11.2017 12:00:00 2,4 1,1 2,3 4,7 10,3 9 5 18 10 Z 1024,7 10 0,0
20.11.2017 11:00:00 1,5 0,2 1,9 4,7 10,3 8 4 17 9 Z 1026,1 10 0,0
20.11.2017 10:00:00 1,1 0,2 0,5 4,8 10,4 9 5 17 9 Z 1025,7 9 0,0
20.11.2017 09:00:00 0,3 0,0 -0,4 4,8 10,3 8 4 12 7 Z 1025,6 4,7 0,0
20.11.2017 08:00:00 -0,2 -0,5 -0,6 5,0 10,4 5 3 11 6 - 1025,5 5 0,0
20.11.2017 07:00:00 -0,3 -0,6 -0,8 5,1 10,4 4 2 13 7 Z 1025,4 0,4 0,0
20.11.2017 06:00:00 -0,1 -0,5 -1,8 5,2 10,4 8 4 12 6 ZZW 1025,2 2,2 0,0
20.11.2017 05:00:00 -0,2 -0,9 -2,3 5,3 10,3 4 2 13 7 - 1025,4 9 0,0
20.11.2017 04:00:00 -0,2 -1,3 -1,9 5,5 10,4 5 3 18 10 ZW 1025,7 10 0,0
20.11.2017 03:00:00 0,3 -1,1 -0,7 5,6 10,4 11 6 20 11 ZZW 1025,8 10 0,0
20.11.2017 02:00:00 0,0 -1,3 -1,8 5,8 10,3 15 8 21 11 ZZW 1025,9 10 0,0
20.11.2017 01:00:00 0,9 -0,3 -1,1 5,9 10,4 11 6 19 10 ZZO 1026,1 10 0,0
20.11.2017 00:00:00 1,0 -0,9 -0,8 6,1 10,4 9 5 16 9 Z 1026,1 10 0,0
19.11.2017 23:00:00 2,3 -0,6 -0,2 6,2 10,4 8 4 12 6 ZO 1025,7 10 0,0
19.11.2017 22:00:00 2,4 0,0 0,2 6,3 10,4 8 4 23 13 O 1025,6 10 0,0
19.11.2017 21:00:00 4,9 0,3 2,3 6,5 10,4 16 9 25 13 W 1024,8 10 0,0
19.11.2017 20:00:00 3,8 0,1 1,7 6,5 10,4 9 5 19 10 ZW 1024,4 10 0,0
19.11.2017 19:00:00 3,9 0,2 1,5 6,6 10,4 6 4 23 13 ONO 1023,7 45 0,0
19.11.2017 18:00:00 5,4 0,6 3,9 6,6 10,4 18 10 26 14 W 1022,8 10 0,0
19.11.2017 17:00:00 5,7 0,5 4,1 6,6 10,4 13 7 24 13 W 1022,8 10 0,0
19.11.2017 16:00:00 7,9 -0,1 9,3 6,4 10,4 18 10 34 18 W 1022,0 10 0,0
19.11.2017 15:00:00 8,5 0,7 8,0 6,3 10,4 22 12 34 19 W 1021,6 20 0,0
19.11.2017 14:00:00 8,2 0,7 8,5 6,2 10,4 16 9 35 19 WNW 1021,4 10 0,0
19.11.2017 13:00:00 8,5 0,9 11,0 6,1 10,4 22 12 35 19 WNW 1021,2 10 0,0
19.11.2017 12:00:00 8,4 2,6 7,8 6,0 10,4 18 10 36 19 WNW 1021,3 10 0,0
19.11.2017 11:00:00 6,8 1,5 7,0 6,0 10,4 24 13 38 20 WNW 1021,2 49 0,0
19.11.2017 10:00:00 7,5 2,4 5,9 6,1 10,5 15 8 27 15 WNW 1020,5 10 0,0
19.11.2017 09:00:00 5,7 2,2 3,8 6,1 10,4 13 7 22 12 WNW 1020,1 10 0,0
19.11.2017 08:00:00 4,6 3,3 4,0 6,2 10,5 4 2 28 15 - 1019,5 10 0,0
19.11.2017 07:00:00 4,2 2,9 3,8 6,2 10,5 18 10 32 17 ZZW 1018,7 10 0,0
19.11.2017 06:00:00 4,0 2,7 3,7 6,3 10,5 21 11 32 17 Z 1018,4 10 0,0
19.11.2017 05:00:00 4,0 2,5 3,2 6,3 10,4 16 9 37 20 Z 1018,6 10 0,0
19.11.2017 04:00:00 3,8 2,6 3,3 6,4 10,4 24 13 37 20 Z 1018,3 10 1,4
19.11.2017 03:00:00 3,8 2,8 3,3 6,5 10,5 19 10 28 15 Z 1019,5 8 1,4
19.11.2017 02:00:00 3,8 2,6 3,3 6,5 10,5 11 6 23 12 Z 1020,6 8 1,4
19.11.2017 01:00:00 3,9 2,6 3,3 6,6 10,5 15 8 27 14 Z 1021,3 7 0,8
19.11.2017 00:00:00 3,9 2,3 3,2 6,7 10,5 13 7 24 13 Z 1021,7 10 0,2
18.11.2017 23:00:00 4,5 2,2 3,4 6,7 10,5 13 7 28 15 Z 1022,0 10 0,2
18.11.2017 22:00:00 4,9 1,7 3,6 6,8 10,5 15 8 28 15 ZZW 1022,4 10 0,2
18.11.2017 21:00:00 5,2 0,6 - - - 13 7 22 12 Z 1022,8 10 0,0
18.11.2017 20:00:00 5,2 1,1 4,6 6,8 10,5 8 4 18 10 ZZW 1023,6 10 0,0
18.11.2017 19:00:00 5,4 0,8 4,9 6,9 10,6 11 6 25 13 ZZW 1023,6 10 0,0
18.11.2017 18:00:00 5,6 0,6 4,8 6,8 10,5 13 7 21 11 ZZW 1023,6 51 0,0
18.11.2017 17:00:00 5,3 0,5 4,8 6,8 10,6 13 7 26 14 ZW 1023,7 49 0,0

tt = temperatuur
td = dauwpunt
tt 5cm = temperatuur 5cm
tt -20cm = temperatuur -20cm
tt -100cm = temperatuur -100cm
ff = windsnelheid
fx = windstoten
dd = windrichting
ppp = luchtdruk
vv = zicht
rr = neerslag

Weerstations in de omgeving